Погода в Кутопьюгане

Россия / Ямало-Ненецкий автономный округ     66°19′17″N   70°22′58″E
темп.,
°C
ветер,
м/с
пор.,
м/с
влажн.,
%
обл.,
%
осадки,
мм/ч
давл.,
гПа
погр.,
м
6 марта, сб
сб623:00−16зсз349696 0.1 99620
02:00−16зсз239494 0.0 99620
05:00−17зсз229697 0.0 99820
08:00−16зсз2392100 0.0 99835
11:00−15сз2388100 0.0 998155
14:00−15сз348995 0.0 999211
17:00−18сз349598 0.0 99923
20:00−20сз349893 0.0 100022
7 марта, вс
вс723:00−22зсз459995 0.0 100129
02:00−22сз4510092 0.0 100135
05:00−21ссз4510096 0.0 100271
08:00−23ссз45100100 0.0 100376
11:00−21с4597100 0.1 1005210
14:00−22с459699 0.0 1006238
17:00−24с349799 0.1 1008114
20:00−25с4598100 0.1 1008124
8 марта, пн
пн823:00−26ссв4598100 0.2 1009105
02:00−27ссв4598100 0.1 1009144
05:00−28с4698100 0.3 1009174
08:00−30с5697100 0.1 1009212
11:00−29с5696100 0.1 1008242
14:00−30с5696100 0.1 1008270
17:00−32с5797100 0.1 1008182
20:00−36с5598100 0.0 100861
9 марта, вт
вт923:00−37ссз459895 0.0 100849
02:00−38ссз459980 0.0 100948
05:00−38сз459951 0.0 100932
08:00−37зсз449810 0.0 101031
11:00−32зсз46947 0.0 1011224
14:00−29зсз358939 0.0 1011293
17:00−32зюз349419 0.0 101120
20:00−35зюз34940 0.0 101119
10 марта, ср
ср1023:00−36юз33930 0.0 101019
02:00−36юз34940 0.0 100819
05:00−36юз449412 0.0 100720
08:00−36ююз559351 0.0 100657
11:00−31юз7109342 0.0 1004274
14:00−28юз8129079 0.0 1002337
17:00−25юз8149090 0.0 1000438
20:00−23юз81393100 0.1 999364